Vertical_Velocity
0 0 0 1 2 2 2 1 1 1 1 1 1 2 3 5 3 2 1 1 1 2 3 4 3 3 4 5 5 5 5 6 4 2 -0 -2 -5 -1 4 5 1 1 1 1 2 3 3 3 3 2 0 -1 -2 3 11 16 17 14 8 -2 -2 -1 1 1 -1 -1 0 2 2
-1 -1 -1 -1 0 1 1 1 1 0 0 -0 -0 -1 -0 1 2 2 1 2 2 3 4 4 4 4 4 4 6 6 6 6 4 3 1 -1 -2 2 6 -0 -2 -1 -0 0 1 2 2 2 3 2 1 -1 -1 2 8 14 16 13 6 -3 -3 -1 2 6 3 4 5 5 2
-1 -1 -1 -1 -1 -0 -0 -0 -0 -0 -1 -2 -2 -2 -3 -2 -0 1 1 2 3 5 6 6 5 5 4 4 6 7 6 5 4 3 3 1 0 1 0 -5 -5 -3 -1 1 0 1 1 2 2 2 1 -0 -0 4 9 13 12 11 8 -1 2 7 12 13 9 8 8 6 2
-0 -0 -1 -1 -1 -1 -1 -1 -1 -2 -2 -3 -4 -4 -4 -3 -1 -0 0 1 2 4 6 8 7 6 6 6 7 7 6 4 4 4 4 3 2 -1 -3 -6 -6 -3 1 5 2 1 1 2 2 2 1 1 0 3 8 16 14 12 8 1 9 20 26 23 15 11 8 7 2
-0 -0 0 -0 -0 -0 -1 -1 -1 -1 -2 -3 -4 -4 -3 -2 -2 -1 -0 -0 -1 1 4 7 6 6 6 8 8 8 7 5 4 3 4 4 2 -1 -3 -5 -4 1 6 8 3 1 0 1 1 2 1 1 0 -0 1 5 9 10 8 4 7 12 16 17 14 11 8 6 0
-0 -0 0 0 0 0 -0 -0 0 -1 -1 -2 -2 -2 -2 -1 -1 -1 -1 -1 -2 -1 1 4 5 6 6 7 8 8 7 6 4 4 3 3 2 -0 -3 -5 -1 6 12 14 5 0 -2 -0 0 0 0 0 1 -0 -1 -1 4 9 12 10 6 5 4 4 6 8 9 6 1
-0 -0 -0 -0 0 0 0 0 0 -0 -1 -2 -1 -1 -1 -1 -1 -1 -1 -1 -1 -1 -1 1 3 4 5 6 6 6 7 6 5 4 3 2 1 -0 -0 4 8 12 14 15 9 3 -1 -2 -1 -1 -0 1 4 5 4 0 5 11 15 13 7 5 4 2 2 3 4 5 4
-0 -0 -0 -0 -0 0 0 0 0 -1 -1 -2 -1 -1 -1 -1 -2 -2 -1 0 -1 -2 -2 -0 2 3 4 5 4 5 5 6 5 4 3 2 -0 1 6 14 15 13 10 7 9 8 5 2 0 -0 0 0 3 5 6 3 5 10 12 10 6 4 4 2 2 3 4 5 5
-1 -1 -0 -0 -0 0 0 -0 -0 -1 -1 -1 -0 -0 -0 -1 -1 -1 -0 -1 -2 -2 -1 -0 1 2 4 4 4 4 5 5 4 3 2 1 1 5 12 17 16 12 8 7 10 11 10 6 5 3 2 2 0 1 3 6 10 11 11 8 6 6 5 2 2 3 4 4 4
-0 -0 0 -0 -0 -0 -0 -1 -1 -1 -1 -1 -1 -0 -0 -0 0 0 -0 -1 -1 -1 -1 -1 1 2 3 4 5 5 4 4 4 3 1 -0 2 7 13 17 14 10 7 13 15 13 9 6 6 4 2 2 -0 -1 -0 4 9 10 10 10 10 9 7 3 3 4 4 4 3
1 1 1 1 0 0 -0 -1 -2 -2 -1 -2 -1 -0 0 -0 0 0 -0 0 0 -1 -2 -0 1 2 2 4 5 4 4 4 3 2 1 -1 3 8 12 14 13 11 11 16 17 14 10 6 4 2 1 1 -0 -2 -2 -0 3 5 5 6 8 7 5 3 4 4 4 4 4
1 2 2 2 1 1 -0 -2 -2 -2 -2 -2 -1 -0 0 0 0 1 1 1 0 -1 -2 0 1 1 2 4 4 4 4 4 3 2 1 -0 3 6 8 11 14 13 13 14 14 14 12 8 3 1 1 -0 -1 -2 -2 0 2 3 3 3 4 4 3 2 3 3 3 4 4
2 2 2 2 1 0 -1 -2 -2 -2 -1 -1 -0 1 1 0 1 1 1 1 -0 -1 -1 -0 1 1 2 2 3 3 2 2 2 2 1 -0 1 3 6 10 11 11 10 8 9 12 13 11 6 4 2 0 -1 -2 -2 1 2 3 3 2 3 2 2 1 1 2 2 3 3
2 2 2 1 0 -1 -2 -2 -2 -1 -0 -0 1 1 2 1 1 2 2 0 0 -0 -1 -1 0 1 2 2 2 2 1 1 1 0 -0 -0 0 2 4 7 9 9 7 4 7 10 13 11 8 5 3 1 1 0 -0 1 2 2 2 2 2 2 1 1 1 1 1 1 1
2 2 1 0 -1 -2 -2 -2 -1 -0 1 0 1 1 1 0 1 2 2 0 -0 -0 -0 -1 0 1 2 2 1 1 0 -0 -0 -1 -1 -1 -1 -0 1 3 6 7 7 5 9 10 10 7 6 5 3 1 2 2 2 2 2 1 1 2 2 1 1 1 0 1 1 0 0
1 1 -0 -1 -2 -2 -2 -1 -0 0 1 0 1 1 1 -0 1 1 1 -0 -0 -0 0 -0 1 2 2 1 1 1 1 -0 -1 -1 -1 -2 -2 -2 -2 -1 0 2 4 7 9 8 6 5 5 4 3 2 1 2 3 3 3 2 2 2 2 1 1 0 0 0 -0 -0 0
-0 -0 -1 -1 -2 -2 -1 -1 -0 0 1 1 1 1 1 0 0 0 -0 -1 -0 0 0 0 1 2 2 2 2 2 1 0 0 -0 -1 -2 -2 -3 -3 -3 -3 -2 0 4 5 5 4 4 3 4 4 4 1 0 2 4 5 4 3 2 1 0 0 -0 0 -0 -0 -0 0
-1 -1 -2 -2 -1 -1 -1 -0 0 1 1 1 1 1 1 0 -0 -1 -1 -0 1 1 0 0 2 2 3 4 4 4 3 2 2 1 -0 -1 -2 -3 -4 -4 -3 -2 -0 1 2 2 2 2 2 5 7 6 1 1 3 6 6 5 3 1 -0 -1 -0 -0 0 0 0 0 0
-1 -1 -1 -1 -1 -1 -1 -0 1 1 1 1 1 0 -0 -1 -1 -1 -1 0 1 1 1 1 2 3 4 4 5 5 5 4 4 2 1 -0 -1 -2 -3 -2 -2 -0 1 1 2 1 1 1 3 6 9 9 6 4 4 6 5 3 0 -1 -1 -1 -0 0 -0 -0 -0 -0 -0
-0 -0 -0 -1 -1 -1 -1 -0 -0 0 0 0 -1 -2 -2 -3 -2 -1 -0 -0 0 0 1 1 2 3 4 4 4 6 6 7 5 4 3 2 1 -0 -1 -1 -0 0 1 2 1 1 1 2 4 5 6 7 7 6 4 3 1 -0 -2 -2 -1 -0 0 -0 -1 -1 -1 -1 -1
0 -0 -0 -1 -1 -2 -2 -1 -1 -1 -1 -1 -2 -3 -4 -4 -3 -2 -1 -1 -0 0 1 1 3 4 4 2 4 6 8 9 7 5 4 3 2 1 0 0 0 1 1 1 1 1 1 3 3 3 2 4 4 4 3 1 -1 -2 -2 -2 -1 0 0 -1 -2 -2 -2 -2 -2
-1 -2 -2 -3 -3 -2 -2 -1 -1 -0 -0 -1 -3 -4 -5 -5 -4 -3 -3 -2 -1 -0 0 1 4 4 3 1 3 6 9 10 8 6 4 3 2 3 4 4 3 1 1 1 1 1 1 2 2 2 2 3 2 1 0 -1 -2 -2 -1 -1 -1 -1 -1 -2 -3 -3 -2 -2 -1
-4 -4 -4 -4 -4 -3 -2 -1 -0 0 0 -1 -3 -5 -6 -6 -6 -5 -4 -3 -2 -1 -1 0 1 1 0 -0 2 6 9 10 7 5 3 2 2 4 8 11 10 5 1 -0 1 1 1 2 2 2 2 2 1 -0 -1 -2 -2 -1 -1 -1 -1 -2 -2 -2 -2 -1 -1 -1 -0
-6 -6 -6 -5 -4 -3 -1 -0 0 0 -0 -1 -3 -5 -7 -8 -7 -6 -5 -3 -1 0 1 2 1 -0 -1 -2 1 5 8 9 6 4 2 1 1 2 6 10 13 10 5 0 2 2 3 3 3 2 2 1 -0 -1 -2 -1 -1 -1 -1 -1 -1 -1 -1 -1 -1 -0 0 0 1
-7 -7 -6 -5 -4 -2 -2 -1 -0 -0 -1 -2 -3 -5 -7 -8 -7 -6 -4 -2 2 4 6 6 3 0 -2 -2 0 4 7 8 5 3 2 1 -0 0 2 6 11 14 13 7 4 3 4 3 2 1 0 -0 -1 -1 -1 -1 -0 -0 -0 -0 -0 -0 0 0 1 1 1 1 1
-8 -7 -6 -5 -4 -3 -2 -2 -1 -1 -1 -2 -3 -5 -6 -6 -4 -3 -2 -3 -4 -2 -0 2 1 -1 -2 -2 0 4 6 6 3 2 3 4 1 0 1 3 5 9 12 10 5 3 3 2 1 -0 -1 -1 -1 -0 -0 -0 -0 0 1 1 1 1 1 2 1 1 1 2 2
-7 -7 -6 -6 -5 -4 -4 -3 -2 -2 -2 -2 -3 -4 -4 -4 -4 -4 -4 -5 -6 -5 -3 -2 -2 -2 -2 -1 1 2 2 2 1 0 1 2 1 1 1 3 3 4 5 5 4 2 1 1 -0 -1 -1 -0 -0 -0 -0 0 1 1 2 2 2 2 2 2 2 1 1 2 1
-7 -7 -7 -6 -6 -6 -5 -4 -4 -3 -3 -2 -2 -3 -3 -4 -5 -5 -4 -3 -1 -0 -1 -1 -0 1 3 4 3 1 0 -1 -1 -0 -0 0 1 2 3 4 5 4 4 3 2 1 1 0 -0 -0 0 0 0 0 1 2 2 2 2 2 2 2 2 2 2 2 2 1 1
-7 -7 -7 -7 -7 -7 -6 -6 -5 -4 -4 -3 -3 -3 -4 -4 -6 -5 -3 1 4 4 2 0 2 4 6 7 5 3 1 -0 0 1 1 2 3 4 4 5 4 4 3 2 1 1 0 0 1 1 1 1 1 2 2 3 3 2 2 2 2 2 2 2 2 2 1 0 -0
-6 -7 -7 -7 -7 -7 -6 -6 -6 -5 -4 -4 -4 -4 -5 -6 -7 -6 -5 -1 1 2 3 3 4 5 6 6 5 4 3 2 2 2 3 4 4 4 4 3 2 2 1 1 0 1 1 1 1 1 2 2 2 3 3 3 2 2 2 2 2 2 2 2 1 1 -0 -1 -2
-6 -6 -6 -6 -7 -7 -7 -6 -6 -6 -5 -5 -5 -5 -5 -6 -6 -6 -5 -3 -0 2 3 4 5 5 5 5 4 4 3 3 3 3 4 4 3 3 2 2 1 1 1 1 1 1 2 2 2 2 3 3 3 3 3 2 2 2 2 2 2 2 1 1 0 -1 -2 -1 1
-6 -6 -6 -7 -8 -8 -8 -7 -6 -6 -5 -5 -5 -5 -5 -5 -5 -5 -4 -3 -0 2 3 4 4 4 4 4 3 2 2 2 3 3 3 3 3 2 2 1 1 1 2 2 2 2 2 3 3 3 3 3 3 3 2 2 2 2 2 2 3 2 1 1 -0 -0 0 3 6
-6 -6 -7 -8 -8 -9 -8 -8 -6 -6 -5 -4 -4 -4 -4 -4 -4 -4 -3 -2 -0 1 2 3 3 3 2 2 2 1 1 2 2 2 2 2 2 2 2 1 2 2 2 2 2 2 3 3 3 3 3 3 2 2 2 2 2 2 1 2 1 -0 -0 -0 0 2 4 6 4
-7 -7 -7 -8 -8 -8 -8 -8 -7 -6 -5 -4 -4 -4 -4 -3 -3 -2 -2 -1 -0 1 2 2 2 2 1 1 1 2 2 2 2 2 2 2 2 1 1 1 2 2 2 2 2 2 3 3 3 3 3 3 3 2 2 3 3 3 2 1 -0 -0 1 3 4 4 3 2 0
-7 -7 -7 -7 -8 -8 -8 -8 -8 -7 -6 -5 -5 -5 -4 -4 -3 -2 -1 -1 -0 0 1 1 1 1 1 1 1 1 1 1 1 1 1 1 1 1 1 2 2 2 2 2 2 2 3 3 3 3 3 3 2 2 2 4 4 4 2 1 2 3 4 5 4 2 1 0 0
-7 -7 -7 -6 -7 -7 -8 -8 -8 -7 -7 -7 -6 -6 -5 -5 -4 -3 -2 -1 -1 -0 0 1 1 1 1 0 0 0 0 0 0 0 0 0 1 1 1 2 2 2 2 2 2 2 3 3 2 2 2 2 2 1 2 3 2 2 3 4 4 4 4 3 1 1 0 1 3
-7 -7 -7 -6 -6 -6 -7 -7 -7 -7 -7 -7 -7 -7 -6 -6 -5 -4 -3 -2 -1 -1 -0 0 0 0 -0 -0 -1 -1 -1 -0 -0 -0 0 1 1 1 2 2 2 2 2 2 2 2 2 2 2 2 2 2 1 0 1 2 3 4 4 4 3 2 1 0 1 2 3 5 5
-7 -7 -7 -6 -6 -6 -6 -6 -6 -6 -7 -7 -7 -6 -6 -6 -5 -4 -3 -3 -2 -1 -1 -0 -0 -0 -0 -0 -0 -0 -0 -0 0 1 1 1 2 2 2 2 2 2 2 3 2 2 2 2 2 1 1 1 1 2 3 5 5 5 4 2 1 0 1 2 4 5 6 6 4
-6 -7 -7 -6 -6 -5 -5 -5 -5 -6 -6 -6 -6 -6 -6 -5 -5 -4 -4 -3 -2 -2 -1 -1 -1 -0 -0 -0 -0 -0 -0 0 0 1 1 1 2 2 2 2 2 2 2 2 2 2 2 1 1 0 1 2 4 6 7 8 6 5 3 2 2 3 4 5 5 5 4 3 2
-5 -6 -6 -6 -6 -5 -4 -4 -4 -5 -5 -5 -5 -5 -5 -4 -4 -4 -3 -3 -3 -2 -2 -2 -1 -1 -1 -1 -1 -1 -0 -0 -0 0 0 1 1 1 2 2 2 2 2 2 1 1 0 -0 0 1 4 7 8 9 9 9 7 6 5 4 5 5 4 4 3 3 2 1 1
-4 -4 -5 -6 -6 -5 -4 -4 -4 -4 -4 -4 -4 -4 -4 -3 -3 -3 -3 -3 -2 -2 -2 -2 -1 -1 -1 -1 -1 -1 -0 -0 -0 -0 -0 0 1 1 1 1 1 1 1 0 0 -0 -0 1 3 5 7 9 10 10 9 8 7 6 5 4 4 3 2 1 1 2 2 2 2
Height
5725 5725 5725 5725 5724 5724 5723 5722 5722 5722 5722 5721 5721 5721 5721 5721 5720 5720 5719 5720 5720 5720 5720 5719 5719 5719 5719 5719 5719 5719 5718 5718 5717 5717 5717 5717 5717 5717 5717 5716 5717 5718 5719 5719 5720 5720 5720 5721 5721 5721 5721 5722 5722 5722 5723 5723 5723 5722 5721 5721 5722 5722 5723 5724 5724 5724 5724 5725 5725
5722 5721 5721 5720 5720 5719 5719 5718 5718 5717 5717 5716 5716 5716 5716 5716 5715 5715 5715 5715 5715 5715 5715 5714 5714 5714 5714 5714 5714 5714 5714 5714 5713 5713 5713 5713 5714 5713 5712 5712 5713 5715 5715 5715 5715 5716 5716 5717 5717 5717 5717 5718 5718 5719 5720 5721 5720 5719 5718 5718 5718 5719 5719 5720 5720 5721 5721 5721 5721
5717 5717 5717 5716 5716 5715 5715 5714 5713 5713 5712 5712 5711 5710 5710 5710 5710 5710 5710 5710 5710 5710 5710 5710 5709 5709 5710 5710 5710 5710 5709 5709 5709 5709 5709 5710 5710 5709 5708 5709 5710 5711 5711 5711 5711 5711 5712 5712 5713 5713 5714 5714 5715 5716 5717 5718 5717 5716 5715 5715 5715 5716 5717 5717 5717 5717 5717 5717 5718
5714 5713 5713 5712 5712 5711 5710 5710 5709 5708 5707 5707 5706 5705 5705 5705 5704 5704 5704 5704 5704 5704 5704 5704 5704 5704 5704 5704 5704 5704 5704 5703 5704 5704 5705 5705 5705 5705 5705 5706 5707 5707 5707 5706 5706 5707 5707 5708 5709 5710 5710 5711 5712 5712 5713 5714 5714 5713 5712 5712 5713 5714 5715 5715 5715 5715 5715 5715 5715
5710 5709 5709 5708 5707 5707 5706 5705 5704 5703 5702 5702 5701 5701 5700 5699 5699 5698 5698 5697 5697 5697 5698 5698 5698 5697 5698 5698 5698 5698 5698 5698 5698 5699 5700 5700 5701 5702 5702 5702 5703 5703 5702 5701 5701 5702 5703 5704 5705 5706 5706 5707 5708 5709 5709 5710 5711 5710 5709 5708 5709 5710 5711 5711 5712 5712 5712 5712 5712
5706 5706 5705 5704 5703 5702 5702 5701 5700 5699 5697 5697 5696 5696 5695 5694 5693 5693 5692 5692 5691 5691 5691 5691 5691 5691 5691 5692 5692 5692 5692 5692 5692 5693 5694 5695 5696 5697 5698 5699 5700 5700 5698 5697 5696 5697 5699 5700 5701 5702 5702 5703 5704 5705 5705 5706 5707 5707 5706 5705 5705 5705 5706 5707 5708 5709 5710 5710 5710
5702 5702 5701 5700 5699 5698 5697 5696 5695 5694 5693 5692 5691 5691 5690 5688 5688 5687 5686 5685 5685 5684 5684 5684 5685 5684 5684 5685 5685 5685 5685 5685 5686 5687 5687 5689 5690 5692 5695 5695 5696 5696 5695 5693 5692 5692 5694 5696 5697 5698 5698 5699 5700 5701 5701 5702 5703 5703 5703 5702 5702 5702 5703 5704 5705 5706 5707 5707 5707
5699 5698 5697 5696 5695 5694 5693 5692 5690 5689 5688 5687 5686 5685 5684 5683 5682 5681 5680 5679 5678 5677 5677 5677 5677 5677 5677 5677 5678 5678 5678 5679 5679 5680 5681 5683 5685 5688 5690 5691 5691 5691 5690 5690 5689 5690 5691 5692 5692 5694 5695 5696 5697 5697 5698 5698 5699 5699 5699 5699 5698 5699 5700 5701 5702 5702 5703 5703 5704
5695 5694 5693 5692 5691 5689 5688 5687 5686 5684 5683 5682 5681 5679 5678 5677 5676 5675 5673 5672 5672 5671 5670 5670 5670 5670 5670 5670 5670 5671 5671 5672 5673 5674 5675 5677 5680 5683 5684 5685 5686 5686 5686 5685 5686 5687 5687 5687 5688 5690 5691 5692 5693 5694 5694 5695 5696 5696 5696 5695 5695 5696 5697 5698 5698 5699 5699 5700 5700
5692 5690 5689 5688 5687 5685 5684 5682 5681 5679 5678 5677 5675 5673 5672 5671 5670 5668 5667 5666 5665 5664 5663 5663 5663 5663 5663 5663 5663 5663 5664 5665 5666 5667 5669 5671 5674 5677 5678 5680 5681 5682 5682 5681 5682 5682 5682 5682 5683 5685 5687 5688 5689 5689 5690 5691 5692 5692 5692 5692 5692 5693 5694 5694 5695 5695 5696 5696 5697
5688 5687 5686 5684 5682 5681 5679 5677 5676 5674 5672 5671 5669 5667 5666 5665 5663 5662 5660 5659 5658 5657 5656 5656 5656 5656 5656 5656 5656 5656 5657 5657 5659 5660 5662 5665 5668 5671 5673 5675 5676 5677 5677 5677 5677 5677 5677 5678 5679 5681 5682 5684 5685 5685 5686 5687 5687 5687 5688 5688 5688 5689 5690 5690 5691 5692 5692 5693 5693
5684 5683 5682 5680 5678 5676 5674 5672 5670 5668 5667 5665 5663 5662 5660 5658 5657 5655 5654 5653 5652 5651 5650 5649 5649 5649 5649 5649 5649 5650 5650 5651 5652 5654 5656 5658 5661 5664 5667 5669 5670 5670 5671 5673 5673 5673 5673 5674 5675 5676 5678 5679 5680 5682 5682 5683 5684 5684 5684 5685 5685 5686 5686 5687 5688 5688 5689 5689 5689
5681 5679 5677 5676 5673 5671 5669 5667 5665 5663 5661 5659 5657 5655 5654 5652 5650 5649 5648 5647 5645 5644 5644 5643 5643 5643 5643 5643 5643 5644 5644 5645 5646 5648 5650 5652 5654 5657 5661 5663 5664 5665 5666 5667 5668 5670 5670 5670 5671 5672 5673 5675 5676 5677 5679 5679 5680 5681 5681 5682 5682 5683 5683 5684 5684 5685 5685 5686 5686
5677 5675 5673 5671 5668 5666 5664 5662 5659 5657 5655 5653 5651 5649 5648 5646 5645 5643 5642 5641 5640 5638 5638 5638 5638 5638 5638 5638 5638 5639 5639 5640 5641 5643 5644 5646 5648 5651 5654 5657 5659 5660 5661 5662 5663 5665 5666 5666 5667 5668 5669 5671 5672 5674 5675 5676 5676 5677 5677 5678 5679 5679 5680 5681 5681 5682 5682 5682 5682
5673 5671 5668 5666 5664 5661 5659 5656 5654 5651 5649 5647 5645 5644 5642 5641 5639 5638 5637 5635 5634 5633 5632 5633 5633 5633 5633 5633 5634 5634 5635 5636 5637 5638 5640 5642 5643 5646 5648 5651 5653 5655 5656 5657 5659 5660 5661 5662 5662 5664 5666 5667 5668 5670 5671 5672 5672 5673 5674 5674 5675 5676 5677 5677 5677 5678 5678 5678 5678
5669 5666 5664 5661 5658 5656 5653 5650 5648 5646 5644 5642 5640 5638 5637 5635 5633 5632 5631 5630 5628 5628 5627 5628 5628 5628 5628 5629 5630 5630 5631 5632 5633 5634 5636 5637 5639 5641 5643 5645 5647 5650 5652 5653 5654 5655 5656 5657 5659 5661 5662 5664 5665 5665 5666 5667 5668 5669 5670 5671 5671 5672 5672 5673 5674 5674 5674 5675 5675
5664 5662 5659 5656 5653 5650 5647 5645 5642 5641 5638 5637 5635 5633 5632 5630 5628 5627 5625 5624 5623 5623 5623 5623 5623 5624 5624 5625 5626 5626 5627 5628 5629 5630 5632 5633 5635 5637 5638 5640 5642 5644 5647 5649 5650 5651 5652 5653 5655 5657 5659 5659 5660 5661 5662 5663 5664 5665 5666 5667 5667 5668 5668 5669 5670 5670 5671 5671 5671
5660 5657 5654 5651 5647 5645 5642 5640 5638 5636 5634 5632 5631 5629 5627 5625 5623 5621 5620 5619 5618 5618 5618 5618 5619 5620 5621 5621 5622 5622 5623 5624 5625 5626 5627 5629 5631 5632 5634 5636 5638 5640 5642 5644 5646 5647 5648 5650 5652 5653 5655 5655 5655 5656 5657 5659 5660 5661 5662 5663 5663 5664 5664 5665 5666 5666 5667 5667 5667
5655 5652 5649 5645 5642 5640 5637 5635 5633 5632 5630 5628 5627 5625 5622 5620 5618 5616 5615 5614 5614 5614 5614 5615 5615 5616 5617 5617 5618 5619 5619 5620 5621 5622 5623 5625 5627 5628 5630 5632 5634 5636 5638 5640 5641 5643 5644 5646 5648 5650 5651 5651 5652 5653 5654 5655 5656 5657 5658 5658 5659 5660 5661 5662 5662 5662 5662 5662 5662
5650 5647 5644 5641 5638 5636 5634 5632 5630 5628 5627 5625 5623 5621 5618 5616 5614 5612 5611 5610 5610 5610 5611 5612 5612 5613 5613 5614 5615 5615 5616 5617 5617 5618 5620 5621 5623 5625 5627 5628 5631 5632 5634 5636 5637 5639 5640 5642 5644 5645 5647 5648 5649 5650 5651 5652 5653 5653 5654 5655 5655 5656 5657 5658 5658 5658 5658 5658 5658
5646 5643 5640 5637 5635 5633 5631 5628 5627 5625 5623 5621 5619 5617 5615 5612 5610 5608 5607 5607 5607 5607 5608 5608 5609 5610 5611 5611 5611 5612 5613 5613 5614 5615 5616 5617 5619 5621 5623 5625 5627 5628 5630 5632 5633 5635 5636 5638 5640 5641 5643 5645 5645 5646 5647 5648 5648 5649 5651 5652 5652 5653 5653 5654 5654 5654 5654 5654 5654
5642 5640 5637 5635 5632 5630 5627 5625 5623 5621 5619 5617 5616 5614 5612 5610 5607 5606 5604 5604 5604 5604 5605 5606 5607 5607 5607 5607 5608 5609 5610 5611 5611 5612 5613 5614 5616 5618 5620 5622 5623 5625 5627 5628 5629 5631 5632 5634 5636 5637 5639 5641 5642 5642 5643 5644 5645 5646 5647 5648 5649 5650 5650 5650 5650 5651 5651 5651 5651
5639 5637 5634 5632 5629 5627 5624 5622 5620 5617 5616 5614 5613 5611 5609 5607 5605 5604 5603 5602 5602 5602 5603 5603 5604 5604 5604 5605 5605 5606 5607 5608 5608 5609 5610 5612 5613 5615 5617 5619 5621 5622 5624 5625 5626 5628 5629 5631 5632 5634 5635 5636 5637 5639 5640 5641 5642 5643 5644 5645 5645 5646 5647 5647 5647 5647 5647 5647 5647
5637 5634 5632 5629 5626 5623 5621 5618 5616 5614 5612 5611 5610 5609 5607 5606 5604 5603 5602 5601 5601 5601 5601 5601 5602 5602 5602 5602 5603 5604 5605 5605 5606 5607 5608 5609 5610 5612 5614 5616 5618 5620 5621 5622 5623 5624 5626 5627 5629 5630 5632 5633 5635 5636 5637 5638 5639 5640 5641 5642 5642 5643 5643 5643 5644 5644 5644 5644 5645
5634 5632 5629 5626 5623 5620 5618 5615 5613 5611 5610 5608 5607 5606 5605 5604 5603 5602 5601 5600 5600 5600 5600 5600 5600 5600 5600 5600 5601 5602 5602 5603 5604 5605 5606 5607 5608 5609 5611 5612 5614 5617 5619 5619 5620 5621 5623 5624 5626 5627 5629 5631 5632 5633 5634 5635 5636 5637 5638 5638 5639 5640 5640 5640 5641 5641 5641 5642 5642
5632 5629 5626 5623 5621 5618 5615 5612 5610 5609 5607 5606 5605 5604 5603 5602 5601 5601 5600 5599 5598 5598 5598 5598 5598 5598 5598 5598 5599 5600 5601 5601 5602 5603 5604 5605 5606 5607 5608 5609 5610 5613 5616 5617 5617 5618 5620 5621 5623 5625 5626 5627 5629 5630 5631 5632 5633 5634 5635 5636 5636 5637 5637 5637 5638 5638 5638 5639 5639
5629 5627 5624 5621 5618 5616 5613 5610 5608 5607 5605 5604 5603 5602 5602 5601 5600 5599 5598 5597 5597 5596 5596 5596 5596 5596 5597 5597 5598 5598 5599 5599 5600 5601 5602 5602 5604 5605 5606 5607 5608 5609 5611 5613 5614 5616 5617 5619 5620 5622 5623 5625 5626 5627 5628 5629 5630 5631 5632 5633 5633 5634 5634 5635 5635 5636 5636 5636 5636
5627 5624 5622 5619 5616 5614 5611 5609 5607 5605 5604 5603 5602 5601 5600 5599 5598 5597 5597 5596 5596 5595 5595 5595 5594 5595 5595 5596 5596 5597 5597 5597 5598 5598 5599 5600 5601 5602 5603 5604 5606 5607 5609 5610 5612 5613 5615 5617 5618 5619 5621 5622 5623 5625 5626 5627 5628 5629 5630 5630 5631 5632 5632 5632 5633 5633 5633 5633 5633
5625 5622 5620 5617 5615 5612 5610 5608 5606 5604 5603 5602 5601 5600 5599 5597 5596 5595 5595 5594 5594 5594 5594 5593 5593 5593 5594 5594 5594 5595 5595 5596 5596 5597 5597 5598 5599 5600 5601 5602 5604 5605 5607 5608 5610 5611 5613 5615 5616 5617 5619 5620 5621 5622 5624 5625 5626 5627 5627 5628 5628 5629 5630 5630 5630 5630 5630 5630 5630
5623 5621 5618 5616 5613 5611 5609 5607 5605 5603 5602 5601 5600 5598 5597 5596 5595 5594 5593 5593 5593 5592 5592 5592 5592 5592 5592 5592 5593 5593 5593 5594 5594 5595 5596 5597 5598 5599 5600 5601 5602 5603 5605 5607 5608 5610 5612 5613 5614 5616 5617 5618 5620 5621 5622 5623 5624 5625 5625 5626 5626 5627 5627 5627 5627 5628 5628 5628 5627
5622 5620 5617 5615 5612 5610 5608 5606 5604 5603 5601 5600 5599 5597 5596 5595 5594 5593 5592 5592 5591 5591 5591 5591 5591 5591 5591 5591 5591 5592 5592 5592 5593 5594 5594 5595 5596 5597 5598 5599 5601 5602 5604 5605 5607 5609 5610 5612 5613 5614 5616 5617 5618 5619 5620 5621 5622 5622 5623 5624 5624 5625 5625 5625 5625 5625 5625 5625 5625
5621 5619 5617 5614 5612 5610 5607 5605 5603 5602 5600 5599 5598 5597 5596 5594 5593 5592 5591 5591 5590 5590 5590 5590 5590 5590 5590 5590 5590 5591 5591 5591 5592 5592 5593 5594 5595 5596 5597 5598 5600 5601 5603 5605 5606 5608 5609 5611 5612 5613 5614 5615 5617 5617 5618 5619 5620 5621 5621 5622 5622 5622 5623 5623 5623 5622 5622 5622 5622
5620 5618 5616 5613 5612 5609 5607 5605 5603 5601 5600 5598 5597 5596 5595 5593 5592 5591 5591 5590 5589 5589 5589 5589 5589 5589 5589 5589 5589 5590 5590 5590 5591 5591 5592 5593 5594 5595 5596 5598 5599 5601 5602 5604 5605 5607 5608 5610 5611 5612 5613 5614 5615 5616 5617 5617 5618 5619 5619 5620 5620 5620 5620 5620 5620 5620 5620 5620 5619
5619 5617 5615 5613 5611 5609 5607 5605 5603 5601 5600 5598 5597 5595 5594 5593 5592 5591 5590 5589 5589 5588 5588 5588 5588 5588 5588 5588 5588 5588 5589 5589 5590 5591 5592 5592 5594 5595 5596 5598 5599 5601 5602 5603 5605 5606 5607 5608 5610 5611 5612 5612 5613 5614 5615 5616 5617 5617 5617 5617 5617 5618 5618 5618 5618 5618 5617 5617 5616
5618 5617 5615 5613 5611 5609 5607 5605 5603 5602 5600 5598 5597 5595 5594 5592 5591 5590 5589 5589 5588 5588 5587 5587 5587 5587 5587 5587 5588 5588 5589 5589 5590 5591 5592 5593 5594 5595 5597 5598 5599 5600 5602 5603 5604 5605 5607 5607 5608 5609 5610 5611 5612 5613 5614 5614 5614 5615 5615 5616 5616 5616 5616 5616 5615 5615 5614 5614 5613
5618 5616 5614 5612 5611 5609 5607 5606 5604 5602 5601 5599 5598 5596 5595 5593 5592 5591 5590 5589 5588 5588 5588 5587 5587 5587 5587 5588 5588 5589 5589 5590 5591 5592 5592 5593 5595 5596 5597 5598 5599 5600 5602 5602 5603 5605 5606 5607 5607 5608 5609 5610 5611 5611 5612 5612 5612 5613 5613 5614 5614 5613 5613 5613 5612 5612 5612 5612 5611
5617 5616 5614 5612 5611 5609 5607 5606 5604 5603 5601 5600 5598 5597 5596 5594 5593 5592 5591 5590 5590 5589 5589 5589 5588 5589 5589 5589 5589 5590 5590 5591 5592 5592 5593 5594 5595 5596 5597 5598 5599 5600 5601 5602 5603 5604 5605 5605 5606 5607 5608 5608 5609 5609 5610 5611 5611 5612 5612 5612 5612 5611 5611 5611 5610 5610 5609 5609 5608
5617 5615 5614 5612 5611 5609 5607 5606 5604 5603 5602 5600 5599 5598 5597 5596 5594 5593 5592 5592 5591 5591 5591 5590 5590 5590 5590 5591 5591 5591 5592 5592 5593 5594 5595 5595 5596 5597 5597 5598 5599 5600 5601 5602 5602 5603 5604 5604 5605 5606 5607 5607 5607 5608 5609 5609 5610 5610 5610 5610 5609 5609 5609 5608 5608 5607 5607 5606 5605
5616 5615 5613 5612 5610 5609 5607 5606 5604 5603 5602 5601 5600 5598 5597 5597 5596 5595 5594 5593 5593 5592 5592 5592 5592 5592 5592 5592 5592 5593 5593 5594 5594 5595 5595 5596 5597 5597 5598 5598 5599 5600 5600 5601 5602 5602 5603 5603 5604 5605 5605 5606 5606 5607 5607 5607 5608 5608 5607 5607 5607 5607 5607 5606 5605 5605 5604 5603 5602
5615 5614 5613 5612 5610 5609 5607 5606 5605 5603 5602 5601 5600 5599 5598 5597 5596 5596 5595 5594 5594 5594 5593 5593 5593 5593 5593 5594 5594 5594 5595 5595 5595 5596 5596 5597 5597 5597 5598 5598 5599 5599 5600 5601 5601 5602 5602 5602 5603 5603 5604 5604 5605 5605 5605 5605 5606 5606 5606 5605 5605 5605 5604 5603 5603 5602 5601 5600 5599
5615 5613 5612 5611 5610 5608 5607 5606 5605 5604 5602 5602 5601 5600 5599 5598 5597 5596 5596 5595 5595 5595 5594 5594 5594 5594 5594 5594 5595 5595 5595 5596 5596 5596 5597 5597 5597 5597 5598 5598 5599 5599 5600 5600 5600 5601 5601 5602 5602 5602 5602 5603 5603 5603 5603 5603 5603 5603 5603 5603 5602 5602 5602 5601 5600 5599 5598 5598 5597